Flag for Netherlands Weather past 2 weeks in Ede, Netherlands

Now
39 °F

Sprinkles. Overcast.


Feels Like: 32 °F
Forecast: 40 / 51 °F
Wind: 13 mph from South

Location: Deelen

Current Time: Mar 31, 2015 at 1:35:50 AM

Latest Report: Mar 31, 2015 at 12:55 AM


Visibility: N/A

Pressure: 29.53 "Hg

Humidity: 93%

Dew point: 37 °F

Location of EdeLocation

Historic Weather in Ede — Graph

°F

Ede temperature yesterday

Maximum temperature yesterday: 48 °F (at 3:55 PM)
Minimum temperature yesterday: 41 °F (at 8:25 PM)
Average temperature yesterday: 44 °F

Past Weeks' High & Low Weather Summary

 TemperatureHumidityPressure
High63 °F (Mar 17, 1:55 PM)100% (Mar 16, 4:25 AM)30.39 "Hg (Mar 16, 4:25 AM)
Low25 °F (Mar 24, 3:55 AM)39% (Mar 17, 1:55 PM)29.15 "Hg (Mar 29, 6:55 PM)
Average42 °F83%30.00 "Hg
* Reported Mar 15 11:25 PM — Mar 31 12:25 AM, Ede, Weather by CustomWeather, © 2015

Note: Actual official high and low records may vary slightly from our data, if they occured in-between our weather recording intervals... More about our weather records

Advertising

Ede weather history for previous 24 hours

 ConditionsComfort  
Time TempWeatherWind HumidityBarometerVisibility
12:25 AM
Tue, Mar 31
39 °FSprinkles. Mostly cloudy.16 mph93%29.59 "HgN/A
11:55 PM
Mon, Mar 30
41 °FLight rain. Overcast.15 mph81%29.62 "HgN/A
11:25 PM41 °FLight rain. Mostly cloudy.21 mph76%29.65 "HgN/A
10:55 PM43 °FLight rain. Passing clouds.9 mph66%29.68 "HgN/A
10:25 PM43 °FPassing clouds.9 mph66%29.71 "HgN/A
9:55 PM43 °FPartly cloudy.10 mph66%29.74 "HgN/A
9:25 PM43 °FPartly cloudy.10 mph66%29.74 "HgN/A
8:55 PM43 °FPartly sunny.8 mph66%29.77 "HgN/A
8:25 PM41 °FPartly sunny.6 mph66%29.80 "HgN/A
7:55 PM43 °FPassing clouds.8 mph53%29.80 "HgN/A
7:25 PM45 °FPassing clouds.10 mph49%29.80 "HgN/A
6:55 PM46 °FPartly sunny.13 mph50%29.80 "HgN/A
6:25 PM46 °FPartly sunny.15 mph50%29.80 "HgN/A
5:55 PM48 °FPassing clouds.20 mph46%29.80 "HgN/A
5:25 PM46 °FPartly sunny.15 mph50%29.80 "HgN/A
4:55 PM48 °FBroken clouds.17 mph50%29.77 "HgN/A
4:25 PM46 °FBroken clouds.20 mph53%29.77 "HgN/A
3:55 PM48 °FBroken clouds.18 mph50%29.74 "HgN/A
3:25 PM46 °FMostly cloudy.21 mph53%29.74 "HgN/A
2:55 PM46 °FPartly sunny.20 mph53%29.74 "HgN/A
2:25 PM46 °FPartly sunny.22 mph53%29.71 "HgN/A
1:55 PM46 °FBroken clouds.20 mph53%29.71 "HgN/A
1:25 PM43 °FBroken clouds.20 mph76%29.68 "HgN/A
12:55 PM46 °FBroken clouds.23 mph62%29.65 "HgN/A
12:25 PM46 °FBroken clouds.24 mph66%29.62 "HgN/A
11:55 AM45 °FBroken clouds.17 mph71%29.62 "HgN/A
11:25 AM45 °FBroken clouds.17 mph76%29.59 "HgN/A
10:55 AM45 °FPartly sunny.17 mph71%29.59 "HgN/A
10:25 AM45 °FBroken clouds.16 mph66%29.56 "HgN/A
9:55 AM45 °FCloudy.16 mph66%29.56 "HgN/A
9:25 AM45 °FBroken clouds.16 mph66%29.53 "HgN/A
8:55 AM43 °FBroken clouds.18 mph71%29.53 "HgN/A
8:25 AM43 °FBroken clouds.16 mph71%29.50 "HgN/A
7:55 AM43 °FMostly cloudy.17 mph76%29.50 "HgN/A
7:25 AM43 °FPassing clouds.16 mph76%29.47 "HgN/A
6:55 AM43 °FPartly cloudy.16 mph76%29.45 "HgN/A
6:25 AM43 °FOvercast.15 mph76%29.45 "HgN/A
5:55 AM43 °FPassing clouds.14 mph76%29.45 "HgN/A
5:25 AM43 °FPassing clouds.15 mph76%29.42 "HgN/A
4:55 AM43 °FPassing clouds.13 mph76%29.42 "HgN/A
4:25 AM43 °FPassing clouds.13 mph76%29.42 "HgN/A
3:55 AM43 °FPassing clouds.16 mph81%29.42 "HgN/A
3:25 AM45 °FPartly cloudy.20 mph76%29.42 "HgN/A
2:55 AM45 °FPassing clouds.17 mph76%29.42 "HgN/A
2:25 AM46 °FMostly cloudy.15 mph76%29.39 "HgN/A
1:55 AM45 °FPartly cloudy.12 mph81%29.39 "HgN/A
1:25 AM45 °FPartly cloudy.12 mph76%29.36 "HgN/A
Weather by CustomWeather, © 2015

See weather overviewHow to use our weather pages